Regional Weather Roundup
Issued by NWS Lake Charles, LA

Home | Current Version | Previous Version | Text Only | Print | Product List | Glossary On
Versions: 1 2 3 4 5 6 7 8 9 10 11 12 13 14 15 16 17 18 19 20 21 22 23 24 25 26 27 28 29 30 31 32 33 34 35 36 37 38 39 40 41 42 43 44 45 46 47 48 49 50
000
ASUS44 KLCH 271210
RWRLCH
RWRLCH
REGIONAL WEATHER ROUNDUP
NATIONAL WEATHER SERVICE LAKE CHARLES LA
600 AM CST THU NOV 27 2014

Note: "fair" indicates few or no clouds below 12,000 feet with no
significant weather and/or obstructions to visibility.


ACROSS SOUTHEAST TEXAS

CITY           SKY/WX    TMP DP  RH WIND       PRES   REMARKS
BEAUMONT       CLEAR     46  38  73 N7        30.42R
BEAUMONT CITY    N/A     45  38  78 N7        30.43R
ORANGE         SUNNY     40  40 100 N3        30.44R
JASPER         CLEAR     40  35  83 N5        30.47R
$$

ACROSS CENTRAL LOUISIANA

CITY           SKY/WX    TMP DP  RH WIND       PRES   REMARKS
LEESVILLE      CLEAR     44  33  65 N8        30.42R
FULLERTON        N/A     45  33  63 VRB3      30.40R
ALEXANDRIA INT CLEAR     40  33  76 NW6       30.42R
ESLER FIELD    CLEAR     46  31  55 N8        30.42R
DERIDDER         N/A     44  34  68 N5        30.45R
OAKDALE        SUNNY     37  35  91 N3        30.43R
OPELOUSAS        N/A     44  36  71 N7        30.41R
$$

ACROSS SOUTHWEST AND SOUTH CENTRAL LOUISIANA

CITY           SKY/WX    TMP DP  RH WIND       PRES   REMARKS
SULPHUR        SUNNY     47  38  70 N7        30.42R
LAKE CHARLES   CLEAR     48  37  65 N8        30.41R
CHENNAULT INT  CLEAR     48  36  61 N7        30.42
CAMERON PHI      N/A     52  39  62 NE10G18   30.44R
DEQUINCY         N/A     43  37  80 N5        30.42R
JENNINGS         N/A     45  38  78 N7        30.42R
LAFAYETTE      CLEAR     48  37  65 N10       30.41R
NEW IBERIA     CLEAR     46  40  79 NW5       30.41R
ABBEVILLE        N/A     44  40  87 CALM      30.41R
PATTERSON      CLEAR     48  41  76 N5        30.41R
SALT POINT       N/A     54  43  66 N5        30.38R
$$

SELECTED SITES ACROSS THE REGION

CITY           SKY/WX    TMP DP  RH WIND       PRES   REMARKS
HOUSTON BUSH   CLEAR     46  38  73 N5        30.43R
HOUSTON HOBBY  CLEAR     50  39  66 NE8       30.41R
GALVESTON      CLEAR     55  43  63 NE15      30.41R
COLLEGE STAT   CLEAR     46  33  60 NE9       30.45R
CONROE         CLEAR     47  32  56 N7        30.44R
HUNTSVILLE     CLEAR     43  34  70 VRB3      30.45R
LUFKIN         CLEAR     46  31  55 NW3       30.45R
SHREVEPORT     CLEAR     43  30  60 N9        30.45R
MONROE         CLEAR     43  30  60 N12       30.45R
NATCHEZ MS     CLEAR     43  30  61 N5        30.41R
BATON ROUGE    CLEAR     41  37  86 NW5       30.40R
N.O. INTL ARPT CLEAR     51  41  68 N8        30.37R
SLIDELL        CLEAR     42  37  82 CALM      30.36R
$$

MARINE REPORTS

STATION/POSITION TIME  TEMP    WIND        PRES    VSBY  WAVE
                       AIR SEA DIR/SP/G                  HT/PER
                 (UTC) (F)     (DEG/KT/KT) (MB)    (MI)  (FT/S)
BUOY 30 S HIGH I 1200   59 61   40/ 16/ 19 1028.8R         2/ 3
SEA RIM ST PARK  1200   50      10/  9/ 11 1030.5R
PORT ARTHUR      1200      58   10/  2/  4 1030.2R
SABINE PASS N    1200   54 58   10/  9/ 10 1029.8R
TEXAS POINT      NOT AVBL
CALCASIEU PASS   1200   53 57   40/  9/ 14   N/A
LK CHARLES BEACH 1200   51 59              1029.9R
MARSH ISLAND     NOT AVBL
FRESH WATER LOCK 1200   49 59  340/  7/  8 1029.2R
AMERADA PASS     1200   52 56  320/  4/  6 1028.8R
$$


USA.gov is the U.S. government's official web portal to all federal, state and local government web resources and services.